Wind_Speed
24 24 24 24 23 22 22 22 22 20 18 16 16 17 16 16 16 15 15 16 16 16 16 16 16 16 16 16 16 16 16 17 17 17 17 16 16 17 17 17 18 18 19 20
26 25 25 25 25 24 23 22 22 22 20 19 18 18 18 18 17 16 17 17 17 17 17 17 17 17 18 18 18 18 18 18 19 19 19 18 19 20 20 20 20 20 20 21
28 27 27 27 25 24 23 23 23 23 22 20 19 19 20 20 19 19 19 18 17 17 17 18 19 19 19 20 21 21 21 21 21 21 22 21 21 21 21 22 23 23 23 23
29 29 30 27 26 26 25 24 24 24 23 22 22 22 21 21 21 20 20 20 19 18 19 20 21 22 21 21 22 23 23 23 23 24 24 23 24 24 24 24 25 25 25 24
31 31 31 29 28 28 27 27 26 25 25 25 24 24 23 23 23 23 22 22 21 20 21 23 23 24 24 24 25 25 24 24 25 25 26 25 25 25 25 25 25 26 26 27
33 33 32 30 29 29 29 28 27 27 26 26 27 27 25 24 25 25 24 24 24 23 23 24 25 25 26 27 26 27 27 27 28 27 27 26 26 27 27 27 27 27 28 28
34 34 34 31 30 30 31 29 28 28 28 28 28 28 27 26 27 26 26 26 25 25 25 25 26 27 27 28 28 28 29 29 29 29 28 27 27 28 28 29 29 29 30 30
33 35 35 33 32 32 32 31 30 30 30 30 30 30 29 28 28 28 28 27 27 27 28 28 28 29 29 29 30 30 30 29 29 30 29 28 29 29 30 30 31 31 31 31
34 35 35 34 33 33 33 33 32 31 31 31 30 30 30 29 30 30 30 29 29 29 30 30 29 30 30 31 31 31 31 30 31 31 31 31 31 30 30 31 31 31 31 32
34 34 34 34 33 33 34 34 34 33 32 32 31 30 30 30 30 31 32 30 30 29 30 29 29 31 32 32 31 32 32 31 31 31 31 32 31 31 31 30 31 31 32 32
34 33 34 34 33 34 34 35 35 34 33 33 31 30 30 31 31 31 31 30 31 31 30 30 30 30 31 31 31 32 31 31 31 31 31 31 31 31 32 32 32 32 32 32
33 33 34 33 33 32 33 33 33 34 33 33 33 32 32 31 31 31 32 31 31 32 32 32 31 31 31 31 32 31 31 31 31 31 31 31 30 31 32 32 32 32 32 33
34 34 34 33 33 32 32 32 33 33 33 33 33 33 32 31 31 32 32 32 31 31 32 32 31 31 31 31 31 30 30 30 30 31 31 30 30 31 31 32 32 32 32 32
35 34 34 33 33 33 32 32 32 32 32 32 33 32 31 31 32 31 32 31 30 31 32 32 32 32 32 31 30 30 30 30 30 29 29 29 29 30 31 31 31 31 32 32
35 35 34 33 32 32 32 32 31 31 31 32 33 32 32 31 31 31 31 31 30 29 30 30 31 31 31 31 30 30 29 29 29 29 28 28 28 29 30 30 31 31 32 31
35 36 35 34 34 33 33 31 30 29 30 31 31 31 31 31 31 31 31 30 30 30 30 30 31 31 32 31 29 28 29 29 29 29 29 28 29 29 29 29 30 30 31 31
34 34 34 34 34 32 31 31 30 28 28 29 30 30 30 30 30 29 30 31 31 30 30 30 32 32 32 31 30 28 29 30 30 30 29 29 29 29 30 30 30 31 31 32
33 33 33 33 32 31 30 30 29 28 28 28 28 28 28 29 28 29 29 28 29 29 29 30 31 30 31 31 31 30 29 29 30 31 30 30 30 30 30 30 30 30 31 31
33 33 32 32 31 30 29 29 29 29 29 28 27 27 27 26 26 27 27 27 28 28 28 29 30 30 31 30 30 30 30 30 30 31 30 30 30 30 30 30 30 30 29 29
30 31 31 30 30 30 29 29 28 28 28 28 27 27 27 27 26 26 26 27 28 29 29 29 29 29 29 29 29 29 29 30 30 30 30 30 30 29 29 29 30 30 30 29
27 28 29 29 30 29 28 28 28 28 27 27 27 27 26 26 25 26 26 26 27 26 27 27 27 28 28 28 28 28 28 29 29 29 29 29 29 29 29 29 29 28 28 29
26 26 26 27 28 28 27 27 27 27 27 26 26 26 25 25 26 26 26 26 25 25 26 26 26 26 26 26 27 27 28 28 28 28 28 29 29 29 29 29 28 28 28 28
24 24 24 25 25 26 26 26 27 27 26 26 26 25 24 24 25 25 25 25 25 25 26 26 25 25 25 25 26 26 26 27 27 27 28 28 28 28 28 28 28 28 28 27
23 23 23 24 24 24 24 24 25 25 26 26 26 25 24 24 24 25 26 26 26 25 25 25 25 25 25 24 25 25 25 26 26 26 26 26 26 27 27 27 27 27 28 28
22 22 22 23 23 23 23 24 24 24 24 24 24 24 24 24 24 24 24 24 24 23 24 24 24 24 24 24 24 25 25 26 25 25 25 25 25 25 25 26 26 27 28 28
20 20 21 22 22 23 23 22 23 23 23 22 22 21 21 22 22 22 22 21 22 22 22 22 22 22 23 23 24 24 25 25 24 24 24 24 25 25 25 25 26 27 27 27
19 19 19 20 20 20 21 21 21 20 20 19 19 19 20 20 20 20 20 20 20 20 20 21 21 22 23 23 23 23 23 23 23 23 23 24 24 25 25 25 26 27 27 27
Wind_Direction
249 249 247 248 250 252 255 258 261 264 265 262 261 261 263 265 268 272 275 280 284 287 285 284 285 288 290 289 288 288 290 290 288 288 287 287 288 291 293 295 296 298 300 300
251 251 250 249 249 251 253 256 259 260 261 260 261 261 260 263 267 272 275 278 282 286 283 281 284 286 287 287 286 287 287 287 288 289 289 289 291 292 293 296 298 300 300 298
252 251 251 250 249 249 251 252 255 257 259 259 258 260 261 265 268 273 275 274 278 281 281 280 283 286 288 287 287 288 287 285 285 287 288 289 290 291 291 293 296 299 297 297
252 251 251 253 251 249 250 252 252 254 257 258 257 258 262 266 268 271 274 277 275 276 280 281 283 285 286 287 287 288 287 286 287 286 286 286 286 287 288 290 293 296 296 297
252 251 252 252 252 251 252 252 252 253 255 257 258 259 261 266 267 268 272 274 276 276 279 281 283 285 286 286 287 287 286 286 287 286 285 285 286 289 289 290 291 293 295 295
250 251 252 253 252 253 254 255 254 255 257 258 258 258 261 264 265 267 272 272 274 276 279 281 281 283 285 285 286 286 284 284 287 290 289 287 286 287 288 289 291 292 293 294
250 251 252 253 253 254 255 256 257 257 259 258 258 259 261 263 263 264 269 270 273 275 277 280 281 284 286 286 286 287 287 288 289 289 289 287 286 285 285 286 287 290 291 292
251 251 252 253 253 254 256 257 258 258 260 260 260 261 262 262 263 264 266 268 271 274 276 277 280 282 285 287 287 286 288 289 288 288 287 285 284 284 284 285 286 287 289 289
251 252 253 254 254 255 256 258 258 258 260 261 261 261 262 263 263 265 266 268 270 274 277 278 279 281 284 287 288 287 288 288 288 287 287 286 285 285 286 286 286 287 288 289
252 253 254 255 255 256 256 258 259 259 260 261 262 262 262 263 264 266 266 268 270 274 278 279 282 283 283 285 287 288 288 288 287 287 287 286 286 285 285 287 288 288 289 289
254 256 256 255 256 256 256 257 258 258 259 261 261 261 262 262 264 266 268 268 271 273 277 278 280 283 285 287 288 288 287 288 288 287 287 287 287 286 286 286 288 287 288 289
253 254 255 255 255 256 256 257 258 258 259 259 260 260 261 262 265 266 268 268 270 274 277 279 280 282 283 285 287 288 286 286 287 287 286 286 287 287 287 287 287 287 287 287
252 253 254 255 255 257 258 258 258 258 258 259 260 261 261 261 264 265 267 270 270 273 276 279 280 281 283 284 286 286 284 284 285 286 286 286 286 287 287 287 287 286 285 286
251 252 253 254 255 257 258 258 259 259 258 259 260 261 262 264 265 265 267 269 270 273 276 278 279 280 282 284 284 284 283 283 284 286 286 287 287 287 287 287 287 286 285 285
252 253 252 252 253 254 256 258 260 259 259 260 261 261 263 265 264 264 267 269 271 274 276 277 278 280 282 284 284 283 283 283 284 286 287 288 288 288 288 288 287 286 287 286
251 251 251 251 252 254 255 256 259 259 259 261 261 261 263 264 265 265 267 269 272 273 274 276 279 280 282 285 285 283 283 284 285 285 286 288 289 289 288 288 287 288 287 287
250 250 250 251 252 251 252 254 256 257 258 259 260 259 261 264 264 264 266 267 268 269 273 277 279 279 281 283 285 285 283 283 284 285 287 287 288 288 289 288 289 289 289 290
251 250 250 251 251 251 251 253 252 253 255 258 261 262 263 263 263 264 265 268 269 272 275 278 280 281 282 283 284 285 285 285 285 286 286 287 288 288 289 289 290 291 291 291
249 249 248 248 248 249 250 250 250 251 253 256 260 264 264 264 263 264 267 270 274 276 277 278 279 281 282 283 284 285 284 284 287 289 289 289 288 288 289 290 291 291 291 290
248 248 248 247 247 248 247 248 249 251 252 254 259 263 264 265 265 267 270 273 274 276 279 280 281 282 281 282 284 284 283 286 288 289 290 290 290 290 291 291 292 292 292 294
247 247 246 245 245 245 247 249 249 250 251 254 258 261 264 266 268 270 272 273 276 278 280 280 281 282 282 283 285 285 285 287 289 290 291 291 290 290 290 291 292 291 292 294
245 246 246 245 244 244 246 249 249 250 252 254 257 260 263 266 269 271 274 275 277 279 280 280 280 281 283 285 285 286 286 287 289 290 291 291 290 290 289 289 289 290 291 294
245 246 247 249 248 246 248 249 250 252 254 257 259 261 263 266 270 273 276 276 277 278 279 280 281 283 285 286 286 287 288 290 291 292 292 292 292 291 290 289 289 290 291 293
241 244 247 250 250 248 249 251 253 255 257 258 259 260 263 266 270 272 273 275 277 277 278 280 281 284 286 287 289 290 291 291 293 293 293 292 292 292 291 289 289 290 291 292
239 242 246 248 249 249 250 252 255 255 255 257 258 260 263 266 270 272 274 274 275 276 276 278 281 283 284 287 290 291 292 292 293 293 294 294 294 294 293 293 294 294 294 295
238 241 242 243 246 249 251 255 257 255 254 255 257 260 263 266 269 272 274 274 274 275 276 278 280 281 284 288 289 291 293 292 291 292 294 294 294 294 295 295 296 297 297 297
239 241 244 248 249 251 253 255 256 256 255 256 259 262 266 270 272 273 274 275 275 275 277 279 281 283 285 286 287 289 292 293 294 295 295 295 296 296 297 297 298 299 299 298
Height
5866 5868 5870 5872 5873 5874 5876 5877 5878 5880 5880 5882 5883 5884 5885 5885 5886 5886 5885 5885 5884 5884 5883 5882 5881 5880 5878 5877 5876 5875 5874 5873 5872 5871 5870 5869 5867 5865 5864 5863 5861 5859 5858 5856
5859 5862 5863 5865 5867 5869 5870 5872 5873 5874 5876 5877 5878 5879 5880 5881 5881 5881 5881 5880 5879 5879 5878 5877 5876 5875 5874 5873 5872 5871 5870 5868 5867 5866 5865 5864 5863 5861 5860 5858 5856 5854 5853 5851
5853 5855 5856 5858 5861 5863 5865 5866 5867 5868 5871 5872 5873 5874 5875 5875 5875 5875 5875 5874 5873 5873 5873 5872 5871 5870 5869 5868 5867 5866 5865 5864 5862 5861 5860 5858 5857 5856 5854 5853 5851 5850 5848 5846
5845 5848 5849 5854 5855 5857 5859 5860 5862 5863 5864 5865 5867 5868 5869 5869 5869 5870 5869 5868 5868 5867 5867 5867 5866 5865 5864 5863 5862 5860 5859 5857 5856 5855 5853 5852 5851 5849 5848 5847 5845 5843 5842 5839
5838 5839 5841 5846 5848 5850 5852 5854 5856 5857 5858 5859 5860 5861 5862 5863 5863 5863 5863 5862 5862 5862 5861 5861 5860 5859 5858 5857 5856 5854 5852 5851 5849 5848 5846 5845 5843 5842 5841 5839 5838 5836 5835 5832
5830 5832 5834 5839 5841 5842 5846 5847 5849 5850 5851 5852 5853 5854 5857 5856 5856 5856 5856 5856 5855 5855 5855 5854 5854 5853 5852 5850 5849 5847 5845 5843 5842 5840 5838 5837 5836 5835 5833 5832 5831 5829 5827 5825
5822 5823 5826 5831 5833 5835 5838 5841 5842 5842 5843 5844 5846 5847 5849 5849 5849 5849 5849 5849 5849 5849 5848 5847 5846 5845 5844 5843 5841 5839 5837 5835 5834 5832 5830 5829 5828 5826 5825 5824 5823 5821 5820 5817
5813 5815 5820 5822 5825 5827 5829 5831 5833 5834 5835 5836 5838 5839 5840 5841 5841 5841 5841 5842 5842 5841 5841 5840 5839 5838 5837 5835 5834 5831 5829 5827 5826 5824 5822 5820 5819 5818 5817 5816 5815 5813 5811 5809
5805 5809 5811 5813 5815 5817 5819 5822 5824 5825 5827 5828 5829 5830 5831 5832 5833 5833 5833 5833 5833 5833 5833 5832 5830 5829 5828 5827 5825 5823 5821 5819 5818 5816 5814 5812 5811 5810 5808 5807 5806 5804 5802 5801
5796 5799 5802 5804 5806 5808 5810 5812 5814 5816 5818 5819 5820 5821 5822 5823 5824 5824 5824 5824 5824 5824 5824 5823 5822 5821 5819 5818 5816 5815 5813 5811 5809 5807 5805 5804 5802 5801 5800 5798 5797 5795 5794 5792
5787 5790 5793 5795 5797 5798 5800 5802 5804 5806 5808 5810 5811 5812 5813 5814 5815 5815 5815 5815 5815 5815 5814 5814 5813 5812 5811 5809 5807 5806 5804 5802 5800 5799 5797 5795 5794 5792 5791 5790 5788 5787 5785 5783
5779 5781 5783 5786 5787 5789 5791 5793 5795 5797 5798 5800 5801 5802 5803 5805 5805 5806 5806 5806 5806 5806 5806 5805 5805 5804 5802 5800 5799 5797 5795 5793 5792 5790 5788 5786 5785 5784 5782 5781 5779 5777 5775 5773
5769 5771 5773 5776 5778 5779 5781 5783 5785 5787 5789 5790 5791 5792 5793 5795 5796 5797 5797 5797 5797 5797 5797 5796 5795 5795 5793 5791 5790 5788 5786 5785 5783 5781 5779 5777 5776 5774 5773 5772 5770 5768 5766 5764
5759 5761 5764 5766 5768 5770 5772 5774 5776 5777 5779 5780 5781 5782 5784 5785 5786 5787 5788 5788 5788 5788 5787 5787 5786 5785 5784 5782 5780 5778 5777 5776 5774 5772 5770 5769 5767 5766 5764 5762 5761 5759 5757 5755
5750 5752 5754 5757 5759 5761 5763 5765 5767 5768 5770 5771 5772 5773 5774 5776 5777 5778 5779 5779 5778 5778 5778 5778 5777 5776 5774 5772 5770 5769 5768 5766 5765 5764 5762 5761 5759 5757 5755 5753 5752 5750 5748 5746
5740 5742 5745 5748 5750 5752 5754 5756 5758 5760 5761 5762 5763 5764 5766 5766 5767 5768 5769 5769 5769 5769 5769 5768 5767 5766 5765 5763 5760 5758 5758 5757 5756 5755 5754 5752 5751 5749 5747 5744 5743 5741 5739 5737
5730 5733 5735 5738 5741 5743 5746 5748 5749 5751 5752 5754 5755 5756 5756 5757 5757 5759 5760 5760 5760 5760 5760 5759 5758 5757 5756 5754 5752 5750 5749 5749 5748 5746 5745 5743 5742 5740 5738 5736 5734 5732 5731 5728
5721 5724 5726 5729 5732 5735 5737 5739 5741 5743 5744 5745 5746 5747 5747 5748 5749 5750 5751 5751 5751 5751 5751 5750 5750 5749 5747 5746 5745 5743 5741 5740 5739 5737 5736 5735 5733 5732 5730 5728 5726 5723 5721 5719
5712 5714 5717 5720 5723 5726 5729 5731 5733 5735 5736 5738 5739 5739 5740 5741 5741 5742 5743 5743 5743 5743 5743 5742 5741 5740 5739 5737 5736 5735 5734 5732 5731 5729 5728 5726 5725 5723 5721 5719 5717 5715 5712 5709
5704 5707 5709 5712 5715 5718 5720 5723 5725 5726 5728 5730 5730 5732 5733 5733 5734 5735 5735 5735 5734 5734 5734 5733 5732 5731 5730 5729 5728 5726 5725 5724 5722 5721 5719 5718 5716 5714 5712 5710 5708 5706 5703 5700
5698 5700 5702 5704 5707 5710 5712 5715 5717 5719 5721 5722 5724 5725 5726 5726 5726 5727 5727 5727 5726 5725 5725 5725 5724 5723 5721 5720 5719 5718 5717 5715 5714 5712 5711 5709 5707 5705 5703 5701 5699 5696 5694 5692
5691 5693 5695 5697 5700 5702 5705 5707 5709 5711 5713 5715 5717 5718 5719 5719 5719 5719 5719 5719 5718 5717 5717 5717 5716 5715 5713 5712 5711 5710 5709 5707 5706 5704 5702 5700 5698 5696 5694 5692 5690 5688 5685 5683
5685 5687 5689 5691 5693 5695 5698 5700 5702 5704 5706 5708 5709 5711 5711 5712 5712 5712 5712 5712 5711 5710 5710 5709 5708 5708 5706 5705 5704 5703 5701 5700 5698 5696 5694 5692 5689 5687 5685 5683 5681 5679 5677 5675
5679 5681 5683 5685 5687 5689 5691 5693 5694 5696 5698 5700 5702 5703 5704 5705 5705 5705 5705 5704 5704 5703 5702 5702 5701 5700 5699 5698 5696 5695 5694 5692 5690 5688 5686 5684 5681 5679 5677 5675 5673 5671 5669 5667
5674 5676 5677 5679 5681 5683 5685 5686 5687 5689 5690 5692 5694 5695 5696 5697 5697 5697 5697 5697 5696 5696 5695 5695 5694 5693 5692 5691 5689 5688 5686 5684 5682 5680 5678 5676 5674 5671 5669 5667 5665 5663 5660 5658
5668 5670 5672 5674 5676 5677 5678 5680 5681 5682 5684 5686 5687 5688 5690 5690 5690 5690 5690 5690 5689 5689 5689 5688 5687 5686 5685 5684 5682 5681 5679 5677 5675 5673 5671 5669 5666 5664 5661 5659 5657 5655 5652 5650
5663 5665 5667 5668 5670 5671 5672 5674 5675 5676 5678 5679 5681 5683 5684 5684 5684 5684 5684 5684 5683 5683 5682 5681 5681 5679 5678 5677 5676 5674 5672 5670 5668 5666 5664 5662 5659 5657 5654 5651 5649 5646 5644 5641